This is the latest recevied weather packets stored in our database for station/object SQ6XL-13. If no packets are shown the sender has not sent any weather packets the latest 10 day(s).
| Time | Temp. | Humidity | Pressure | Rain* | Wind** | Luminosity | Snow |
|---|---|---|---|---|---|---|---|
| 1777127597 | 19.44° C | 34% | 1011.3 hPa | 0 mm | - | - | - |
| 1777127062 | 20° C | 35% | 1011.5 hPa | 0 mm | - | - | - |
| 1777126477 | 20° C | 39% | 1011.4 hPa | 0 mm | - | - | - |
| 1777125982 | 20° C | 39% | 1011.5 hPa | 0 mm | - | - | - |
| 1777125467 | 20° C | 39% | 1011.6 hPa | 0 mm | - | - | - |
| 1777124968 | 20° C | 39% | 1011.6 hPa | 0 mm | - | - | - |
| 1777124482 | 20° C | 39% | 1011.7 hPa | 0 mm | - | - | - |
| 1777124002 | 20° C | 40% | 1011.8 hPa | 0 mm | - | - | - |
| 1777123412 | 20.56° C | 39% | 1011.8 hPa | 0 mm | - | - | - |
| 1777122866 | 20° C | 40% | 1011.9 hPa | 0 mm | - | - | - |
| 1777122317 | 20° C | 40% | 1012 hPa | 0 mm | - | - | - |
| 1777121742 | 20° C | 43% | 1012 hPa | 0 mm | - | - | - |
| 1777121167 | 20° C | 43% | 1012.2 hPa | 0 mm | - | - | - |
| 1777120577 | 19.44° C | 43% | 1012.3 hPa | 0 mm | - | - | - |
| 1777120057 | 19.44° C | 45% | 1012.4 hPa | 0 mm | - | - | - |
| 1777119577 | 18.89° C | 46% | 1012.4 hPa | 0 mm | - | - | - |
| 1777119027 | 18.89° C | 46% | 1012.6 hPa | 0 mm | - | - | - |
| 1777118502 | 18.89° C | 47% | 1012.6 hPa | 0 mm | - | - | - |
| 1777117907 | 18.33° C | 48% | 1012.6 hPa | 0 mm | - | - | - |
| 1777117342 | 18.33° C | 50% | 1012.8 hPa | 0 mm | - | - | - |
| 1777116767 | 17.78° C | 52% | 1012.7 hPa | 0 mm | - | - | - |
| 1777116227 | 17.78° C | 53% | 1012.8 hPa | 0 mm | - | - | - |
| 1777115687 | 17.78° C | 54% | 1012.9 hPa | 0 mm | - | - | - |
| 1777115097 | 18.33° C | 54% | 1012.9 hPa | 0 mm | - | - | - |
| 1777114602 | 18.33° C | 54% | 1012.9 hPa | 0 mm | - | - | - |
* Rain latest hour (hover to see other rain measurements)
** Current wind speed in m/s (hover to see current wind gust speed)